TRA2601 EHAM-LEIB

Flight info

Callsign TRA2601
Flight time 2h 26m
Altitude 37000
Route LOPIK N852 LNO DCT SUTAL DCT GTQ DCT POGOL DCT LASAT DCT MOROK DCT GILIR DCT GEVEA DCT INCUS DCT BALSI DCT RETNO DCT TUPOX DCT MTG DCT DIVKO DCT VATIR N852 PIVUS Z237 SULID DCT DIMIB DCT POS
Aircraft B738/M-SDE2E3FGHIJ1RWXYZ/LB1

Departure

Time 2026-05-04 11:10
Airport Amsterdam Airport Schiphol (EHAM)

Arrival

Time 2026-05-04 13:36
Airport Ibiza Airport (LEIB)
Time Latitude Longitude Altitude Speed Heading
2026-05-04 10:46 52.30706 4.77216 -2 ft 0 kts
2026-05-04 11:05 52.30655 4.77186 -2 ft 1 kts 64°
2026-05-04 11:06 52.30655 4.77187 -2 ft 0 kts 68°
2026-05-04 11:06 52.30654 4.77196 -2 ft 3 kts 93°
2026-05-04 11:06 52.30649 4.77244 -2 ft 5 kts 99°
2026-05-04 11:06 52.30645 4.77311 -2 ft 6 kts 96°
2026-05-04 11:08 52.30355 4.77493 -3 ft 9 kts 239°
2026-05-04 11:10 52.26552 4.68584 3143 ft 176 kts 212°
2026-05-04 11:12 52.19655 4.80025 7204 ft 259 kts 120°
2026-05-04 11:12 52.18767 4.82583 7883 ft 261 kts 121°
2026-05-04 11:12 52.17862 4.85168 8550 ft 265 kts 121°
2026-05-04 11:12 52.16938 4.87796 9138 ft 274 kts 121°
2026-05-04 11:13 52.15958 4.90546 9617 ft 290 kts 124°
2026-05-04 11:13 52.14534 4.92845 10299 ft 294 kts 148°
2026-05-04 11:13 52.12719 4.94608 10555 ft 318 kts 151°
2026-05-04 11:13 52.10719 4.96456 10811 ft 340 kts 152°
2026-05-04 11:14 52.08635 4.98371 11368 ft 349 kts 152°
2026-05-04 11:14 52.06511 5.00335 12144 ft 352 kts 152°
2026-05-04 11:14 52.04377 5.02325 12959 ft 355 kts 152°
2026-05-04 11:16 51.88486 5.15215 17728 ft 377 kts 167°
2026-05-04 11:16 51.85935 5.16266 18362 ft 381 kts 168°
2026-05-04 11:16 51.83356 5.17334 18956 ft 383 kts 167°
2026-05-04 11:17 51.80778 5.18423 19622 ft 384 kts 167°
2026-05-04 11:17 51.78194 5.19528 20302 ft 385 kts 167°
2026-05-04 11:19 51.59854 5.27588 24189 ft 396 kts 167°
2026-05-04 11:19 51.57188 5.28757 24558 ft 398 kts 168°
2026-05-04 11:19 51.54493 5.29912 24913 ft 402 kts 169°
2026-05-04 11:19 51.51791 5.31083 25294 ft 404 kts 168°
2026-05-04 11:20 51.49062 5.32293 25752 ft 407 kts 168°
2026-05-04 11:20 51.46422 5.33541 26133 ft 402 kts 168°
2026-05-04 11:20 51.43698 5.34589 26397 ft 405 kts 170°
2026-05-04 11:20 51.40961 5.35750 26855 ft 409 kts 169°
2026-05-04 11:22 51.21467 5.43878 29508 ft 423 kts 173°
2026-05-04 11:22 51.18587 5.44797 30085 ft 421 kts 174°
2026-05-04 11:23 51.15719 5.45729 30648 ft 422 kts 171°
2026-05-04 11:23 51.12877 5.46992 31048 ft 425 kts 167°
2026-05-04 11:24 50.96048 5.54632 33142 ft 417 kts 170°
2026-05-04 11:25 50.93241 5.55840 33444 ft 417 kts 170°
2026-05-04 11:25 50.90442 5.57047 33771 ft 418 kts 170°
2026-05-04 11:25 50.87636 5.58260 34159 ft 416 kts 170°
2026-05-04 11:26 50.82057 5.60673 34629 ft 417 kts 170°
2026-05-04 11:27 50.62475 5.69227 36084 ft 420 kts 168°
2026-05-04 11:28 50.59657 5.70513 36337 ft 420 kts 168°
2026-05-04 11:28 50.56870 5.71934 36579 ft 422 kts 164°
2026-05-04 11:28 50.54125 5.73597 36759 ft 424 kts 163°
2026-05-04 11:28 50.51418 5.75314 36945 ft 425 kts 162°
2026-05-04 11:29 50.45906 5.78840 36981 ft 430 kts 163°
2026-05-04 11:29 50.40379 5.82315 36980 ft 426 kts 163°
2026-05-04 11:33 50.02144 6.05824 36995 ft 431 kts 163°
2026-05-04 11:33 49.96588 6.09209 37005 ft 432 kts 163°
2026-05-04 11:34 49.90995 6.12603 37013 ft 431 kts 163°
2026-05-04 11:34 49.85424 6.15971 36997 ft 428 kts 163°
2026-05-04 11:35 49.79891 6.19317 37007 ft 426 kts 163°
2026-05-04 11:35 49.74423 6.22615 37020 ft 424 kts 163°
2026-05-04 11:36 49.68923 6.25919 37028 ft 426 kts 163°
2026-05-04 11:36 49.63379 6.29243 37014 ft 428 kts 163°
2026-05-04 11:37 49.57836 6.32561 37014 ft 425 kts 163°
2026-05-04 11:37 49.52329 6.35844 37013 ft 423 kts 163°
2026-05-04 11:38 49.46854 6.39108 37017 ft 421 kts 163°
2026-05-04 11:38 49.41478 6.42604 37017 ft 423 kts 160°
2026-05-04 11:39 49.36117 6.46327 37007 ft 423 kts 160°
2026-05-04 11:41 49.17359 6.59042 37017 ft 421 kts 161°
2026-05-04 11:41 49.12025 6.62623 37023 ft 422 kts 161°
2026-05-04 11:42 49.06644 6.66228 37017 ft 423 kts 161°
2026-05-04 11:42 49.01243 6.69791 37015 ft 422 kts 165°
2026-05-04 11:43 48.95553 6.71546 37014 ft 415 kts 181°
2026-05-04 11:43 48.89844 6.71370 37021 ft 415 kts 185°
2026-05-04 11:44 48.84044 6.71070 37021 ft 418 kts 185°
2026-05-04 11:44 48.78218 6.70800 37010 ft 419 kts 185°
2026-05-04 11:45 48.72444 6.70564 37014 ft 417 kts 184°
2026-05-04 11:45 48.66650 6.70338 37015 ft 415 kts 184°
2026-05-04 11:46 48.60886 6.70119 37015 ft 412 kts 184°
2026-05-04 11:46 48.55160 6.69897 37024 ft 411 kts 185°
2026-05-04 11:47 48.49460 6.69654 37022 ft 410 kts 184°
2026-05-04 11:47 48.43794 6.69448 37018 ft 410 kts 184°
2026-05-04 11:48 48.38093 6.69236 37030 ft 410 kts 184°
2026-05-04 11:48 48.32389 6.69022 37027 ft 411 kts 184°
2026-05-04 11:49 48.26666 6.68800 37019 ft 412 kts 184°
2026-05-04 11:49 48.20959 6.68589 37025 ft 414 kts 184°
2026-05-04 11:50 48.15195 6.68371 37006 ft 414 kts 184°
2026-05-04 11:50 48.09428 6.68156 37015 ft 415 kts 184°
2026-05-04 11:51 48.03645 6.67948 37018 ft 417 kts 184°
2026-05-04 11:51 47.97871 6.67730 37035 ft 420 kts 184°
2026-05-04 11:52 47.92010 6.67513 37018 ft 422 kts 184°
2026-05-04 11:52 47.86192 6.67300 37009 ft 413 kts 184°
2026-05-04 11:53 47.80464 6.67092 37000 ft 412 kts 184°
2026-05-04 11:53 47.74794 6.66878 37021 ft 410 kts 184°
2026-05-04 11:55 47.51924 6.66044 37025 ft 415 kts 184°
2026-05-04 11:56 47.46147 6.65834 37027 ft 416 kts 184°
2026-05-04 11:56 47.40486 6.64666 37028 ft 409 kts 202°
2026-05-04 11:57 47.35569 6.60596 37018 ft 407 kts 220°
2026-05-04 11:57 47.31309 6.55175 37011 ft 408 kts 221°
2026-05-04 11:58 47.27013 6.49702 37002 ft 408 kts 220°
2026-05-04 11:58 47.22688 6.44271 37009 ft 409 kts 220°
2026-05-04 11:59 47.18349 6.38864 37008 ft 409 kts 220°
2026-05-04 11:59 47.14005 6.33437 36992 ft 415 kts 221°
2026-05-04 12:00 47.09674 6.28066 37013 ft 404 kts 218°
2026-05-04 12:00 47.07296 6.25873 37008 ft 405 kts 204°
2026-05-04 12:00 47.04672 6.24384 37032 ft 406 kts 201°
2026-05-04 12:01 46.99126 6.22781 37031 ft 409 kts 188°
2026-05-04 12:02 46.79166 6.20285 37006 ft 414 kts 188°
2026-05-04 12:03 46.73443 6.19524 37025 ft 413 kts 188°
2026-05-04 12:03 46.67705 6.18761 37019 ft 414 kts 188°
2026-05-04 12:04 46.62011 6.18005 37040 ft 414 kts 188°
2026-05-04 12:04 46.56264 6.17249 37033 ft 416 kts 188°
2026-05-04 12:05 46.50513 6.16488 37041 ft 415 kts 188°
2026-05-04 12:05 46.44761 6.15734 37042 ft 415 kts 188°
2026-05-04 12:06 46.39021 6.14981 37069 ft 414 kts 188°
2026-05-04 12:06 46.33323 6.14235 37077 ft 414 kts 188°
2026-05-04 12:07 46.27588 6.13485 37076 ft 414 kts 188°
2026-05-04 12:07 46.21890 6.12507 37073 ft 411 kts 192°
2026-05-04 12:08 46.16260 6.11219 37076 ft 409 kts 192°
2026-05-04 12:08 46.10655 6.09942 37068 ft 410 kts 192°
2026-05-04 12:09 46.05019 6.08689 37083 ft 410 kts 192°
2026-05-04 12:09 45.99361 6.07445 37069 ft 411 kts 192°
2026-05-04 12:10 45.93695 6.06198 37065 ft 412 kts 192°
2026-05-04 12:10 45.88028 6.04948 37076 ft 413 kts 192°
2026-05-04 12:11 45.82401 6.03720 37075 ft 411 kts 192°
2026-05-04 12:11 45.76752 6.02477 37061 ft 410 kts 192°
2026-05-04 12:12 45.71126 6.01238 37068 ft 409 kts 192°
2026-05-04 12:12 45.65516 6.00002 37084 ft 407 kts 192°
2026-05-04 12:14 45.43205 5.94822 37043 ft 406 kts 196°
2026-05-04 12:15 45.37736 5.93059 37054 ft 406 kts 196°
2026-05-04 12:15 45.32221 5.91294 37058 ft 407 kts 196°
2026-05-04 12:16 45.26701 5.89564 37044 ft 407 kts 196°
2026-05-04 12:16 45.22122 5.88137 37039 ft 404 kts 196°
2026-05-04 12:17 45.15750 5.86159 37050 ft 404 kts 196°
2026-05-04 12:17 45.10243 5.84455 37065 ft 407 kts 196°
2026-05-04 12:18 45.05615 5.83021 37064 ft 407 kts 196°
2026-05-04 12:18 45.00084 5.81312 37054 ft 413 kts 197°
2026-05-04 12:19 44.94495 5.79583 37019 ft 407 kts 197°
2026-05-04 12:19 44.89006 5.77901 37025 ft 403 kts 197°
2026-05-04 12:20 44.83530 5.76228 37022 ft 401 kts 197°
2026-05-04 12:20 44.78115 5.74575 37037 ft 401 kts 197°
2026-05-04 12:21 44.72660 5.72911 37022 ft 401 kts 197°
2026-05-04 12:21 44.67206 5.71247 37049 ft 401 kts 197°
2026-05-04 12:22 44.61744 5.69584 37057 ft 402 kts 197°
2026-05-04 12:22 44.56313 5.67939 37044 ft 402 kts 197°
2026-05-04 12:23 44.50847 5.66279 37065 ft 402 kts 197°
2026-05-04 12:23 44.45374 5.64626 37055 ft 402 kts 197°
2026-05-04 12:24 44.39897 5.62972 37037 ft 403 kts 197°
2026-05-04 12:24 44.34587 5.60672 37052 ft 398 kts 206°
2026-05-04 12:25 44.29491 5.57786 37047 ft 398 kts 206°
2026-05-04 12:25 44.24337 5.54904 37037 ft 400 kts 206°
2026-05-04 12:26 44.19163 5.52054 37039 ft 399 kts 206°
2026-05-04 12:26 44.14000 5.49233 37052 ft 399 kts 205°
2026-05-04 12:27 44.08871 5.46437 37019 ft 398 kts 206°
2026-05-04 12:27 44.03711 5.43624 37027 ft 398 kts 206°
2026-05-04 12:28 43.98548 5.40818 37033 ft 398 kts 206°
2026-05-04 12:28 43.93398 5.38023 37028 ft 398 kts 206°
2026-05-04 12:29 43.88269 5.35259 37035 ft 398 kts 206°
2026-05-04 12:29 43.83107 5.32479 37038 ft 398 kts 205°
2026-05-04 12:30 43.77955 5.29705 37023 ft 397 kts 206°
2026-05-04 12:30 43.72805 5.26947 37012 ft 396 kts 205°
2026-05-04 12:31 43.67680 5.24201 37021 ft 394 kts 206°
2026-05-04 12:31 43.62607 5.21483 37018 ft 393 kts 206°
2026-05-04 12:32 43.54995 5.17422 37021 ft 390 kts 206°
2026-05-04 12:33 43.49943 5.14728 37003 ft 388 kts 206°
2026-05-04 12:33 43.44894 5.12040 37033 ft 390 kts 206°
2026-05-04 12:34 43.39868 5.09357 37019 ft 389 kts 208°
2026-05-04 12:34 43.35250 5.05621 37026 ft 384 kts 218°
2026-05-04 12:35 43.30872 5.01436 36990 ft 383 kts 218°
2026-05-04 12:35 43.26487 4.97285 37000 ft 383 kts 218°
2026-05-04 12:36 43.22125 4.93175 37016 ft 383 kts 217°
2026-05-04 12:36 43.17718 4.89042 37008 ft 384 kts 217°
2026-05-04 12:37 43.13304 4.84906 37002 ft 385 kts 217°
2026-05-04 12:37 43.08894 4.80776 36987 ft 384 kts 218°
2026-05-04 12:38 43.04458 4.76774 36996 ft 387 kts 213°
2026-05-04 12:38 42.99748 4.73192 36998 ft 388 kts 212°
2026-05-04 12:39 42.95008 4.69643 36985 ft 389 kts 213°
2026-05-04 12:39 42.90268 4.66082 36979 ft 389 kts 213°
2026-05-04 12:40 42.85527 4.62511 36984 ft 389 kts 213°
2026-05-04 12:40 42.80829 4.58970 36985 ft 388 kts 213°
2026-05-04 12:41 42.76101 4.55409 36985 ft 388 kts 212°
2026-05-04 12:41 42.71373 4.51858 36978 ft 389 kts 212°
2026-05-04 12:42 42.66634 4.48306 36973 ft 389 kts 212°
2026-05-04 12:42 42.61932 4.44790 36973 ft 388 kts 212°
2026-05-04 12:43 42.57216 4.41262 36968 ft 387 kts 212°
2026-05-04 12:43 42.52500 4.37746 36943 ft 386 kts 213°
2026-05-04 12:44 42.47802 4.34247 36963 ft 385 kts 213°
2026-05-04 12:44 42.43114 4.30760 36966 ft 383 kts 213°
2026-05-04 12:45 42.38466 4.27310 36966 ft 383 kts 213°
2026-05-04 12:45 42.33796 4.23848 36964 ft 383 kts 213°
2026-05-04 12:46 42.29130 4.20401 36953 ft 382 kts 213°
2026-05-04 12:46 42.24473 4.16961 36965 ft 382 kts 212°
2026-05-04 12:47 42.19803 4.13517 36958 ft 382 kts 212°
2026-05-04 12:47 42.15163 4.10105 36950 ft 383 kts 212°
2026-05-04 12:48 42.10488 4.06662 36949 ft 383 kts 213°
2026-05-04 12:48 42.05805 4.03221 36957 ft 384 kts 212°
2026-05-04 12:49 42.01109 3.99776 36949 ft 385 kts 212°
2026-05-04 12:49 41.96441 3.96356 36946 ft 385 kts 212°
2026-05-04 12:50 41.91737 3.92923 36927 ft 385 kts 212°
2026-05-04 12:50 41.86960 3.89704 36943 ft 383 kts 211°
2026-05-04 12:51 41.82188 3.86523 36952 ft 383 kts 211°
2026-05-04 12:51 41.77451 3.83347 36953 ft 383 kts 211°
2026-05-04 12:52 41.72683 3.80149 36975 ft 384 kts 211°
2026-05-04 12:52 41.67904 3.76948 36954 ft 384 kts 211°
2026-05-04 12:53 41.63128 3.73755 36950 ft 384 kts 211°
2026-05-04 12:53 41.58379 3.70585 36949 ft 384 kts 211°
2026-05-04 12:54 41.53604 3.67402 36964 ft 384 kts 211°
2026-05-04 12:54 41.48825 3.64219 36950 ft 383 kts 210°
2026-05-04 12:55 41.44058 3.61059 36961 ft 382 kts 211°
2026-05-04 12:55 41.39326 3.57920 36957 ft 381 kts 211°
2026-05-04 12:56 41.34582 3.54784 36941 ft 381 kts 210°
2026-05-04 12:56 41.29835 3.51641 36951 ft 382 kts 210°
2026-05-04 12:57 41.25067 3.48492 36952 ft 383 kts 210°
2026-05-04 12:57 41.20287 3.45349 36963 ft 384 kts 209°
2026-05-04 12:58 41.15197 3.43174 36953 ft 393 kts 197°
2026-05-04 12:58 41.09835 3.41795 36954 ft 393 kts 197°
2026-05-04 12:59 41.04481 3.40417 36951 ft 391 kts 197°
2026-05-04 12:59 40.99145 3.39023 36958 ft 390 kts 197°
2026-05-04 13:00 40.93860 3.37638 36952 ft 389 kts 197°
2026-05-04 13:00 40.88553 3.36246 36959 ft 389 kts 197°
2026-05-04 13:01 40.83256 3.34858 36960 ft 387 kts 197°
2026-05-04 13:01 40.77972 3.33477 36951 ft 387 kts 197°
2026-05-04 13:02 40.72679 3.32093 36956 ft 388 kts 197°
2026-05-04 13:02 40.67420 3.30721 36952 ft 389 kts 197°
2026-05-04 13:03 40.62115 3.29336 36972 ft 389 kts 197°
2026-05-04 13:03 40.56791 3.27951 36969 ft 390 kts 197°
2026-05-04 13:04 40.51450 3.26575 36948 ft 391 kts 198°
2026-05-04 13:04 40.46181 3.25194 36967 ft 389 kts 197°
2026-05-04 13:05 40.40887 3.23829 36943 ft 388 kts 197°
2026-05-04 13:05 40.35572 3.22484 36960 ft 389 kts 197°
2026-05-04 13:06 40.30251 3.21090 36962 ft 391 kts 197°
2026-05-04 13:06 40.24919 3.19720 36545 ft 398 kts 197°
2026-05-04 13:06 40.22221 3.19032 36194 ft 392 kts 197°
2026-05-04 13:07 40.19559 3.18354 35745 ft 387 kts 197°
2026-05-04 13:07 40.16927 3.17686 35327 ft 383 kts 197°
2026-05-04 13:07 40.14322 3.17022 34915 ft 379 kts 197°
2026-05-04 13:07 40.11744 3.16365 34496 ft 375 kts 197°
2026-05-04 13:08 40.09197 3.15711 34103 ft 372 kts 198°
2026-05-04 13:08 40.06676 3.15054 33662 ft 368 kts 198°
2026-05-04 13:08 40.04179 3.14418 33232 ft 364 kts 197°
2026-05-04 13:08 40.01739 3.13800 32825 ft 360 kts 197°
2026-05-04 13:09 39.99290 3.13178 32441 ft 356 kts 197°
2026-05-04 13:09 39.96871 3.12564 32029 ft 352 kts 197°
2026-05-04 13:09 39.94476 3.11937 31644 ft 349 kts 200°
2026-05-04 13:09 39.92195 3.10977 31267 ft 340 kts 207°
2026-05-04 13:10 39.90089 3.09655 30901 ft 334 kts 212°
2026-05-04 13:10 39.88076 3.08188 30530 ft 331 kts 213°
2026-05-04 13:10 39.86101 3.06734 30161 ft 328 kts 213°
2026-05-04 13:10 39.84120 3.05274 29752 ft 326 kts 213°
2026-05-04 13:11 39.82152 3.03829 29335 ft 324 kts 212°
2026-05-04 13:11 39.80200 3.02405 28931 ft 321 kts 212°
2026-05-04 13:11 39.78262 3.00991 28535 ft 317 kts 213°
2026-05-04 13:11 39.76344 2.99590 28104 ft 315 kts 213°
2026-05-04 13:12 39.74440 2.98203 27752 ft 312 kts 213°
2026-05-04 13:12 39.72554 2.96830 27355 ft 310 kts 213°
2026-05-04 13:12 39.70680 2.95468 26985 ft 308 kts 213°
2026-05-04 13:12 39.68820 2.94117 26609 ft 306 kts 213°
2026-05-04 13:13 39.66964 2.92770 26234 ft 305 kts 213°
2026-05-04 13:13 39.65145 2.91451 25869 ft 303 kts 213°
2026-05-04 13:13 39.63302 2.90116 25500 ft 302 kts 213°
2026-05-04 13:13 39.61474 2.88788 25133 ft 300 kts 214°
2026-05-04 13:14 39.59655 2.87469 24770 ft 299 kts 214°
2026-05-04 13:14 39.57831 2.86155 24389 ft 300 kts 214°
2026-05-04 13:14 39.56013 2.84841 24015 ft 299 kts 214°
2026-05-04 13:14 39.54199 2.83530 23660 ft 299 kts 214°
2026-05-04 13:15 39.52378 2.82215 23246 ft 299 kts 214°
2026-05-04 13:15 39.50591 2.80926 22872 ft 298 kts 214°
2026-05-04 13:15 39.48781 2.79620 22499 ft 298 kts 214°
2026-05-04 13:15 39.46973 2.78318 22120 ft 297 kts 214°
2026-05-04 13:16 39.45174 2.77017 21754 ft 295 kts 216°
2026-05-04 13:16 39.43531 2.75471 21395 ft 290 kts 224°
2026-05-04 13:16 39.42112 2.73650 21032 ft 287 kts 232°
2026-05-04 13:16 39.40837 2.71669 20672 ft 286 kts 233°
2026-05-04 13:17 39.39588 2.69671 20319 ft 285 kts 233°
2026-05-04 13:17 39.38347 2.67682 19966 ft 284 kts 233°
2026-05-04 13:17 39.37123 2.65721 19623 ft 284 kts 233°
2026-05-04 13:17 39.35882 2.63738 19271 ft 284 kts 233°
2026-05-04 13:18 39.34642 2.61762 18919 ft 283 kts 233°
2026-05-04 13:18 39.33398 2.59779 18563 ft 285 kts 233°
2026-05-04 13:18 39.32146 2.57792 18180 ft 285 kts 233°
2026-05-04 13:18 39.30895 2.55816 17799 ft 282 kts 233°
2026-05-04 13:19 39.29655 2.53857 17442 ft 281 kts 233°
2026-05-04 13:19 39.28424 2.51905 17094 ft 280 kts 233°
2026-05-04 13:19 39.27193 2.49957 16741 ft 279 kts 233°
2026-05-04 13:19 39.25983 2.48043 16407 ft 278 kts 233°
2026-05-04 13:20 39.24759 2.46111 16064 ft 278 kts 233°
2026-05-04 13:20 39.23536 2.44181 15727 ft 278 kts 232°
2026-05-04 13:20 39.22309 2.42245 15392 ft 278 kts 232°
2026-05-04 13:20 39.21085 2.40322 15055 ft 278 kts 232°
2026-05-04 13:21 39.19859 2.38391 14715 ft 278 kts 232°
2026-05-04 13:21 39.18631 2.36459 14378 ft 279 kts 232°
2026-05-04 13:21 39.17401 2.34525 14016 ft 280 kts 232°
2026-05-04 13:21 39.16167 2.32586 13661 ft 280 kts 231°
2026-05-04 13:22 39.14955 2.30685 13306 ft 277 kts 232°
2026-05-04 13:22 39.13732 2.28762 12961 ft 277 kts 231°
2026-05-04 13:22 39.12511 2.26845 12613 ft 277 kts 231°
2026-05-04 13:22 39.11291 2.24932 12277 ft 276 kts 231°
2026-05-04 13:23 39.10073 2.23024 11927 ft 276 kts 231°
2026-05-04 13:23 39.08857 2.21120 11602 ft 275 kts 231°
2026-05-04 13:23 39.07646 2.19225 11274 ft 274 kts 231°
2026-05-04 13:23 39.06433 2.17331 10947 ft 274 kts 231°
2026-05-04 13:24 39.05224 2.15440 10605 ft 274 kts 231°
2026-05-04 13:24 39.04022 2.13575 10301 ft 275 kts 231°
2026-05-04 13:24 39.02826 2.11700 10144 ft 268 kts 231°
2026-05-04 13:25 39.00489 2.08082 9737 ft 261 kts 231°
2026-05-04 13:25 38.99343 2.06290 9435 ft 259 kts 231°
2026-05-04 13:25 38.98206 2.04506 9138 ft 259 kts 231°
2026-05-04 13:25 38.97066 2.02732 8854 ft 256 kts 231°
2026-05-04 13:26 38.96213 2.00781 8326 ft 262 kts 257°
2026-05-04 13:26 38.96183 1.98448 7947 ft 266 kts 276°
2026-05-04 13:26 38.96715 1.96160 7665 ft 267 kts 284°
2026-05-04 13:26 38.97343 1.93923 7352 ft 265 kts 285°
2026-05-04 13:27 38.97981 1.91715 7047 ft 261 kts 287°
2026-05-04 13:27 38.98628 1.89547 6766 ft 258 kts 285°
2026-05-04 13:27 38.99229 1.87380 6494 ft 256 kts 284°
2026-05-04 13:27 38.99818 1.85233 6223 ft 251 kts 285°
2026-05-04 13:28 39.00405 1.83122 5933 ft 250 kts 285°
2026-05-04 13:28 39.00986 1.81021 5664 ft 248 kts 284°
2026-05-04 13:28 39.01219 1.78916 5398 ft 239 kts 257°
2026-05-04 13:28 39.00901 1.76847 5151 ft 236 kts 257°
2026-05-04 13:29 39.00624 1.74761 4853 ft 236 kts 258°
2026-05-04 13:29 39.00348 1.72686 4646 ft 232 kts 257°
2026-05-04 13:29 39.00090 1.70695 4561 ft 218 kts 257°
2026-05-04 13:29 38.99838 1.68838 4443 ft 204 kts 257°
2026-05-04 13:30 38.99601 1.67111 4351 ft 189 kts 257°
2026-05-04 13:30 38.99115 1.65634 4192 ft 179 kts 236°
2026-05-04 13:30 38.98491 1.64318 4103 ft 167 kts 239°
2026-05-04 13:30 38.97947 1.63058 3976 ft 157 kts 240°
2026-05-04 13:31 38.97436 1.61855 3780 ft 154 kts 240°
2026-05-04 13:31 38.96917 1.60622 3487 ft 155 kts 240°
2026-05-04 13:31 38.96413 1.59426 3328 ft 150 kts 240°
2026-05-04 13:31 38.95915 1.58243 3256 ft 151 kts 240°
2026-05-04 13:32 38.95413 1.57025 3180 ft 156 kts 240°
2026-05-04 13:32 38.94892 1.55790 3038 ft 159 kts 239°
2026-05-04 13:32 38.94376 1.54570 2870 ft 157 kts 239°
2026-05-04 13:32 38.93869 1.53348 2681 ft 153 kts 240°
2026-05-04 13:33 38.93391 1.52179 2570 ft 145 kts 239°
2026-05-04 13:33 38.92914 1.51050 2359 ft 141 kts 238°
2026-05-04 13:33 38.92449 1.49960 2156 ft 137 kts 238°
2026-05-04 13:33 38.92009 1.48909 1956 ft 132 kts 238°
2026-05-04 13:34 38.91584 1.47900 1782 ft 126 kts 239°
2026-05-04 13:34 38.91163 1.46909 1608 ft 129 kts 239°
2026-05-04 13:34 38.90732 1.45881 1425 ft 132 kts 239°
2026-05-04 13:34 38.90309 1.44880 1222 ft 127 kts 238°
2026-05-04 13:35 38.89896 1.43883 1045 ft 126 kts 238°
2026-05-04 13:35 38.89087 1.41757 627 ft 137 kts 240°
2026-05-04 13:35 38.88645 1.40658 401 ft 139 kts 241°
2026-05-04 13:36 38.88202 1.39566 236 ft 134 kts 238°
2026-05-04 13:36 38.87780 1.38530 43 ft 130 kts 239°
2026-05-04 13:36 38.87386 1.37572 9 ft 107 kts 242°
2026-05-04 13:36 38.87122 1.36919 9 ft 48 kts 246°
2026-05-04 13:37 38.87102 1.36660 7 ft 16 kts 273°
2026-05-04 13:37 38.87131 1.36573 7 ft 10 kts 341°
2026-05-04 13:37 38.87183 1.36617 9 ft 9 kts 55°
2026-05-04 13:37 38.87205 1.36664 9 ft 9 kts 60°
2026-05-04 13:38 38.87243 1.36759 9 ft 9 kts 63°
2026-05-04 13:38 38.87270 1.36829 8 ft 9 kts 64°
2026-05-04 13:38 38.87306 1.36865 8 ft 3 kts 337°
2026-05-04 13:38 38.87322 1.36853 8 ft 3 kts 329°
2026-05-04 13:39 38.87348 1.36834 8 ft 8 kts 330°
2026-05-04 13:39 38.87421 1.36785 7 ft 14 kts 343°
2026-05-04 13:39 38.87493 1.36790 7 ft 3 kts 18°
2026-05-04 13:39 38.87504 1.36794 7 ft 0 kts 18°